Location: Black Swamp Observatory
(41.3920°N, 84.1250°W)
Time: 18:37:24
(UTC-05:00)

ISS - Pass Details

Date: 06 December 2021
Orbit: 413 x 422 km, 51.6° (Epoch: 20 January)

Event Time Altitude Azimuth Distance (km) Brightness Sun altitude
Rises 18:01:29 0° 307° (NW) 2,385 0.5 -10.1°
Reaches altitude 10° 18:03:38 10° 312° (NW) 1,515 -0.6 -10.4°
Maximum altitude 18:06:59 56° 31° (NNE) 508 -3.6 -11.0°
Enters shadow 18:10:04 12° 111° (ESE) 1,402 -1.5 -11.6°
